RH
80 86 88 92 98 100 96 99 89 94 94 96 95 95 71 80 93 95 78 66 68 67 50 61 50 43 37 42 35 34 57 50 41 32 26 16 17 17 16 19 17 16 17 27 39
70 71 80 86 89 97 100 99 97 94 96 95 95 83 78 85 94 77 67 65 68 69 63 52 47 41 45 43 41 52 62 52 31 24 24 18 18 18 20 22 22 20 20 25 30
65 66 67 73 82 87 97 100 100 96 95 96 94 72 68 79 77 62 69 72 79 75 68 53 43 38 49 41 41 45 56 34 27 22 30 32 32 20 26 28 24 21 21 25 29
69 66 67 69 70 80 88 98 99 99 98 96 90 72 65 81 77 72 63 72 80 80 72 54 42 48 53 50 37 46 36 34 34 29 34 38 32 34 27 28 25 24 22 24 27
72 70 67 68 70 77 86 93 100 99 96 97 83 73 67 72 59 65 60 79 85 81 76 67 48 46 51 40 39 43 38 32 31 32 34 35 41 42 37 28 25 24 24 26 27
73 71 72 70 70 79 83 91 95 99 97 94 86 77 76 64 42 52 51 50 57 66 75 66 46 42 45 39 39 34 37 37 34 32 35 38 39 39 33 28 29 27 28 26 28
74 73 72 73 72 79 85 88 92 99 99 96 93 82 63 56 41 45 48 47 54 51 72 66 55 53 47 51 45 43 56 47 43 40 40 36 46 44 33 30 29 27 25 24 25
78 79 74 75 75 79 86 89 91 95 100 89 94 76 67 50 50 51 43 45 54 61 54 67 64 56 56 50 48 55 56 70 39 39 36 41 56 36 29 32 32 30 27 25 24
83 82 80 81 81 80 92 92 91 95 99 93 90 77 63 53 48 48 42 43 49 60 61 61 57 61 59 72 68 54 68 57 45 34 34 41 51 36 29 29 33 30 29 25 24
82 85 85 83 85 85 86 92 73 86 85 97 71 78 54 55 45 42 42 47 48 50 69 75 70 74 70 73 80 62 65 54 47 37 38 45 47 36 31 30 32 34 33 31 28
88 88 86 79 87 83 78 84 90 96 99 85 74 52 47 45 48 42 44 49 49 57 73 72 79 87 71 60 56 54 49 47 41 31 37 42 39 35 30 29 30 30 30 28 28
87 83 74 84 92 95 92 79 79 95 98 76 61 49 46 48 55 46 45 58 62 83 57 62 76 49 43 45 52 46 50 52 42 34 39 43 44 36 31 28 26 26 26 26 26
77 74 81 92 79 82 82 70 72 78 98 83 60 53 53 46 53 55 47 49 64 67 68 63 51 45 48 47 51 52 57 54 51 44 42 45 47 36 26 27 26 25 23 23 24
74 89 95 82 97 76 70 72 82 82 100 98 81 59 56 49 56 44 43 45 56 72 58 60 44 44 48 54 48 61 42 45 47 58 68 47 76 42 30 26 22 23 24 26 25
86 88 94 98 92 83 76 76 91 94 98 92 82 49 54 54 58 56 45 42 52 53 53 63 52 57 58 50 44 52 47 50 52 62 64 59 77 49 28 30 25 22 22 21 23
88 91 94 90 95 87 77 80 89 99 97 99 85 71 72 57 56 53 54 47 45 46 46 51 41 47 50 44 45 48 51 53 58 62 89 70 62 51 28 25 25 22 22 22 20
87 91 98 95 86 84 85 90 99 97 91 99 89 73 66 67 69 64 72 76 76 92 90 62 59 49 47 56 50 52 68 94 97 92 89 34 56 42 27 23 25 23 22 20 19
95 93 92 82 72 82 79 96 97 96 99 56 74 71 69 64 70 68 79 84 62 59 80 84 77 59 52 58 62 65 65 93 82 85 64 41 53 39 23 21 19 18 20 22 20
97 93 86 84 82 82 94 92 99 90 59 78 74 87 78 63 66 72 74 69 56 57 74 77 69 47 53 48 54 65 82 55 77 63 87 58 34 26 22 22 21 20 22 24 23
100 92 94 87 76 80 96 80 100 79 52 56 74 62 76 72 67 69 72 54 56 48 47 62 70 51 54 44 46 57 51 91 95 96 82 55 47 40 28 26 22 24 32 33 41
90 91 94 84 74 94 96 78 87 75 48 66 56 57 53 66 61 63 58 49 45 48 46 49 60 67 66 71 69 69 74 71 71 81 86 78 55 28 32 29 30 30 34 37 46
89 98 85 82 98 100 94 88 82 80 48 44 42 45 50 51 59 54 59 48 41 44 55 49 62 89 78 48 51 52 65 64 88 78 79 90 70 32 32 29 30 31 42 45 38
91 92 84 92 100 100 96 94 81 70 56 53 51 42 43 53 61 49 51 46 45 47 52 53 76 90 86 61 49 60 56 54 64 84 90 93 65 28 32 33 31 32 32 30 32
90 94 88 92 88 90 98 84 79 64 56 49 48 44 45 56 45 56 64 52 46 47 59 50 64 82 92 87 80 94 76 62 74 98 81 75 65 49 42 43 43 45 32 35 34
80 91 81 98 85 85 87 78 74 67 56 50 52 48 49 58 61 59 56 63 53 62 53 61 98 78 77 65 70 79 78 73 98 95 98 78 78 67 68 72 62 56 42 37 36
95 98 83 68 64 69 81 94 70 60 59 57 58 52 50 55 63 66 55 54 63 58 60 61 97 83 90 67 66 77 65 64 70 93 96 92 91 66 62 62 54 58 64 62 46
86 88 98 66 57 60 64 66 55 57 62 53 52 54 62 64 60 62 58 50 54 61 64 78 96 94 87 66 68 81 68 82 93 85 92 98 92 77 75 72 84 87 83 79 73
Wind_Speed
21 21 21 20 22 21 17 17 14 13 12 12 10 11 10 11 11 9 17 13 20 15 3 7 10 12 13 8 13 7 5 11 16 14 12 11 6 5 2 7 6 3 4 8 12
21 22 22 21 20 22 20 15 17 14 12 12 11 9 9 8 10 16 16 14 12 9 10 11 10 12 8 9 5 6 7 9 10 13 11 14 5 3 3 7 8 7 8 13 7
22 21 22 21 21 21 21 20 16 17 13 11 11 8 8 5 8 9 23 20 12 11 11 15 14 10 10 9 11 7 12 8 13 15 6 9 11 4 6 5 8 9 8 10 11
22 22 22 22 21 20 20 20 19 19 15 12 10 8 5 7 5 4 4 26 16 12 12 14 12 7 8 13 12 16 12 13 15 14 5 6 9 10 7 8 10 10 9 3 7
24 24 22 23 22 22 22 21 20 18 16 13 10 7 3 6 8 5 6 13 10 14 17 13 11 9 11 9 12 12 16 12 9 9 7 7 8 10 14 10 11 10 11 6 4
25 25 24 23 23 22 22 20 20 18 17 14 11 8 5 11 3 5 6 6 10 16 18 15 5 6 6 12 8 4 8 11 14 7 8 12 11 12 8 11 14 15 13 10 8
26 26 25 24 23 22 23 21 20 18 17 15 12 10 10 11 3 3 6 6 7 16 11 13 3 2 1 3 9 5 8 11 13 10 10 5 14 18 18 18 17 15 13 15 12
25 25 26 24 24 22 21 20 20 20 14 18 13 12 6 5 11 5 6 8 3 5 14 12 4 3 2 4 2 5 10 8 10 19 13 11 15 11 13 18 20 18 15 14 13
23 24 24 24 22 20 21 20 19 21 16 21 11 13 6 8 7 13 10 11 9 8 3 11 8 2 5 3 2 6 6 12 9 5 4 9 6 11 8 5 7 8 9 15 14
23 22 22 22 20 19 20 16 19 17 13 18 11 9 9 9 10 15 13 9 10 8 7 6 3 4 5 7 6 7 10 8 8 5 4 8 13 12 13 14 11 9 10 9 8
22 21 23 23 21 20 17 8 3 6 10 5 10 3 15 16 15 12 15 14 9 9 7 10 4 7 12 10 13 12 8 8 11 9 6 9 15 15 15 15 17 15 13 13 15
21 23 20 18 17 19 15 3 4 6 5 13 8 13 13 18 10 12 17 8 8 8 6 3 7 10 11 11 10 8 7 10 9 9 10 10 21 18 21 22 19 18 17 16 13
22 20 20 21 24 21 14 15 7 11 4 11 11 13 14 8 8 15 15 10 11 9 8 8 2 13 11 7 4 7 6 7 9 11 10 15 18 13 10 17 20 21 21 17 16
21 20 20 21 13 11 15 6 9 7 2 10 9 10 9 7 6 16 16 9 6 11 9 7 6 5 4 9 7 6 3 6 5 6 4 9 7 7 10 9 7 9 8 10 13
24 25 24 26 8 6 2 5 9 3 4 14 8 14 13 8 15 12 18 7 11 9 7 4 4 5 5 6 6 3 7 5 5 6 9 4 4 6 6 6 6 8 8 6 9
25 28 33 21 10 21 14 4 8 3 4 5 7 13 14 13 5 12 10 3 3 5 8 5 3 1 4 3 4 6 2 4 6 4 5 12 9 6 0 2 6 7 7 9 5
30 32 26 10 3 18 13 5 3 4 4 8 9 13 17 13 10 16 11 6 5 4 4 4 8 3 3 4 5 3 2 2 2 3 6 3 8 12 15 15 16 8 7 1 6
30 33 12 4 5 22 16 2 5 4 2 7 14 16 11 15 8 13 12 7 9 6 6 6 4 15 9 9 4 7 4 3 5 3 3 6 7 6 8 9 6 5 6 8 2
30 15 4 8 15 17 2 3 3 3 8 10 18 7 9 11 7 10 10 8 10 10 4 6 3 3 11 6 9 5 6 2 3 5 2 5 6 9 13 14 12 9 10 8 4
9 4 5 19 13 2 1 2 4 5 14 16 5 6 10 14 8 9 12 12 8 14 8 4 3 3 8 6 9 6 3 1 0 3 6 6 8 9 7 8 6 9 5 5 6
5 2 4 14 7 3 1 2 4 8 16 1 9 7 10 14 9 9 11 6 12 12 13 3 2 2 5 8 9 6 5 4 3 3 4 5 4 2 6 7 8 8 1 4 3
3 3 3 8 3 3 1 2 2 4 2 1 6 10 13 14 8 10 11 4 9 8 13 5 3 3 8 7 12 8 8 9 3 5 4 5 12 22 16 3 8 10 5 7 8
2 2 3 3 1 1 3 4 4 3 1 1 4 7 15 10 8 5 10 5 5 5 11 7 3 2 2 3 8 5 7 11 11 7 13 9 10 4 15 22 18 12 9 11 4
2 2 1 2 2 3 1 4 3 6 11 8 8 7 12 7 3 6 7 2 3 3 8 8 3 5 3 2 4 4 5 8 7 6 12 21 31 25 23 22 18 15 15 12 9
0 1 2 1 3 6 2 5 3 3 4 3 2 8 10 4 6 5 9 8 4 6 3 2 2 4 7 11 9 11 15 17 16 18 14 24 25 28 23 24 20 15 12 7 6
3 2 3 2 3 10 1 0 1 7 7 5 10 7 5 5 5 7 6 5 5 7 6 3 3 3 5 13 16 18 17 17 15 16 15 18 24 19 16 15 10 9 11 10 7
7 5 3 1 4 1 2 3 4 4 7 8 6 5 9 7 6 5 5 2 4 6 8 5 2 1 4 7 10 7 5 6 8 11 10 9 15 20 17 10 5 4 5 6 7
Wind_Direction
342 342 340 337 343 337 323 262 268 270 270 275 277 284 271 280 296 203 221 229 229 234 245 239 212 230 235 245 244 219 239 231 246 252 266 279 303 124 139 283 284 189 261 116 122
337 335 333 333 327 335 331 308 259 264 264 269 273 278 279 274 286 241 227 221 236 193 206 238 211 213 215 218 217 220 219 238 246 255 255 263 281 206 206 226 270 260 135 123 147
334 333 329 323 325 321 328 326 282 251 255 258 266 268 271 267 271 248 221 218 210 208 217 221 248 205 226 230 217 213 246 230 245 272 6 333 322 202 296 236 219 237 218 158 175
328 329 328 326 316 317 315 319 314 254 247 244 251 251 247 254 237 94 209 204 210 205 226 243 227 221 236 238 234 244 234 237 265 282 341 303 309 305 263 251 280 302 317 112 161
322 321 322 322 317 311 313 316 318 305 232 234 235 230 195 219 262 132 148 183 211 216 220 231 204 205 225 226 242 229 248 254 263 284 304 291 286 285 289 300 279 285 287 285 236
316 318 318 318 313 312 308 307 309 316 221 226 220 207 230 232 222 145 148 184 212 206 219 226 215 243 254 248 222 226 270 268 269 264 255 267 260 260 263 261 274 275 276 275 246
313 313 314 315 312 307 308 303 300 301 233 213 211 203 240 232 149 189 199 208 211 208 210 215 331 242 34 319 336 327 306 280 259 250 243 269 256 251 251 250 256 249 245 251 256
312 310 311 311 307 304 306 298 297 294 263 204 203 213 244 207 214 206 203 202 222 244 219 197 166 318 351 48 243 243 246 260 248 221 225 205 256 271 274 229 234 246 252 250 240
312 308 310 310 307 301 304 296 295 288 288 184 188 225 235 171 182 201 196 184 182 161 210 176 169 172 169 177 223 233 268 223 258 190 157 199 274 263 276 288 283 245 257 235 240
315 312 310 312 308 305 304 295 289 286 245 172 218 191 214 199 163 173 187 163 160 167 137 160 134 179 217 186 195 207 210 251 270 154 180 239 252 265 282 285 266 252 259 267 244
320 313 312 306 309 315 317 324 211 219 199 177 170 260 146 121 139 166 174 154 158 193 178 196 186 189 196 219 243 286 303 304 311 328 320 272 271 264 263 251 251 244 248 245 247
323 321 317 316 316 315 309 260 262 2 252 224 230 221 138 151 139 166 173 146 178 187 175 153 247 223 230 213 232 274 294 286 295 300 337 307 282 276 259 256 245 244 242 242 247
324 321 320 319 312 304 249 245 277 314 280 201 212 180 156 190 144 163 186 145 172 195 169 184 171 214 253 255 238 260 259 285 300 313 289 275 278 248 252 236 238 238 239 239 238
319 316 315 323 304 287 254 263 210 227 256 156 190 169 164 197 131 160 194 163 176 196 190 241 235 159 204 236 213 245 6 336 305 325 266 21 292 267 279 266 242 222 220 220 232
321 319 311 299 214 276 10 343 163 233 201 146 156 147 164 183 123 168 203 189 183 188 172 219 221 185 229 221 223 238 60 355 311 304 324 245 234 269 189 239 249 258 211 231 220
324 320 321 313 268 222 249 251 87 200 219 129 144 166 155 155 96 147 180 55 345 219 188 215 53 224 209 228 279 83 342 222 255 256 252 217 200 276 271 79 19 336 227 208 97
324 323 319 286 233 192 155 109 196 239 176 130 152 155 160 155 130 152 164 177 157 124 202 247 238 172 281 196 154 209 102 297 235 213 236 202 198 250 295 290 293 261 319 29 113
326 330 327 180 160 154 127 121 256 94 177 173 135 145 161 151 146 164 166 175 229 232 125 188 217 193 176 218 172 194 182 199 273 235 297 325 244 241 235 246 192 223 253 250 77
325 326 2 156 146 148 155 168 315 95 135 134 133 129 131 180 139 155 175 191 200 216 203 166 249 137 150 188 222 136 200 216 307 268 282 233 283 299 267 268 273 257 228 203 164
325 317 31 143 141 107 192 107 309 256 122 144 90 167 157 183 144 168 176 196 197 198 222 19 182 186 153 192 208 193 145 86 8 264 264 242 254 249 335 344 348 346 54 111 101
67 64 48 142 92 43 305 73 348 314 147 313 143 142 149 164 151 177 178 151 188 186 202 178 217 89 84 212 195 189 229 236 8 239 259 303 242 81 359 354 342 330 36 61 39
18 73 179 151 62 241 177 72 45 259 223 46 138 142 153 160 149 179 184 269 190 156 190 170 147 222 218 242 205 209 197 206 201 235 230 285 277 255 265 300 342 303 225 222 215
33 70 226 13 227 126 6 144 165 272 9 62 86 132 150 153 151 200 110 63 90 189 160 161 204 253 278 188 232 223 229 220 229 284 247 267 258 319 307 305 297 268 294 269 277
112 84 327 268 239 119 142 128 106 348 46 67 110 115 151 79 97 119 100 106 148 150 51 146 174 219 203 129 103 266 270 248 232 257 267 249 277 279 291 301 304 313 278 252 243
283 141 207 309 106 105 316 103 113 83 57 22 84 111 137 126 97 134 119 124 168 123 125 116 217 271 268 280 284 270 265 258 248 249 254 281 281 289 294 289 288 279 284 266 254
17 357 298 308 141 109 29 109 123 69 3 57 100 79 29 106 37 153 142 166 163 161 183 186 265 343 288 266 253 254 252 252 262 264 265 272 278 291 290 284 287 16 16 13 359
341 315 283 15 201 197 130 203 93 121 25 29 103 108 74 48 56 56 45 50 80 152 191 160 174 328 259 326 295 269 226 226 239 253 263 279 292 307 312 304 340 35 323 313 314